Home > Weather > Nassau > Past weeks

Flag for Bahamas Weather for the Past 2 Weeks in Nassau, Bahamas

Now
81 °F

Passing clouds.


Feels Like: 80 °F
Forecast: 62 / 76 °F
Wind: 7 mph from Northwest

Location: Nassau Airport

Current Time: Feb 13, 2016 at 12:36:54 PM

Latest Report: Feb 13, 2016 at 11:00 AM


Visibility: N/A

Pressure: 30.20 "Hg

Humidity: 37%

Dew point: 52 °F

Location of NassauLocation

Historic Weather in Nassau — Graph

°F

Nassau Temperature Yesterday

Maximum temperature yesterday: 81 °F (at 12:00 PM)
Minimum temperature yesterday: 54 °F (at 5:00 AM)
Average temperature yesterday: 68 °F

High & Low Weather Summary for the Past Weeks

 TemperatureHumidityPressure
High88 °F (Feb 5, 12:00 PM)100% (Feb 1, 12:00 PM)30.30 "Hg (Feb 1, 12:00 PM)
Low54 °F (Feb 12, 5:00 AM)23% (Feb 11, 11:00 AM)29.86 "Hg (Feb 7, 5:00 AM)
Average72 °F67%30.11 "Hg
* Reported Jan 29 11:00 AM — Feb 13 11:00 AM, Nassau, Weather by CustomWeather, © 2016

Note: Actual official high and low records may vary slightly from our data, if they occured in-between our weather recording intervals... More about our weather records

Advertising

Nassau Weather History for the Previous 24 Hours

 ConditionsComfort  
Time TempWeatherWind HumidityBarometerVisibility
11:00 AM
Sat, Feb 13
81 °FPassing clouds.7 mph37%30.20 "HgN/A
10:00 AM75 °FPassing clouds.6 mph65%30.23 "HgN/A
8:00 AM70 °FScattered clouds.3 mph78%30.20 "HgN/A
7:00 AM63 °FScattered clouds.No wind94%30.18 "HgN/A
6:00 AM55 °FPassing clouds.No wind88%30.18 "HgN/A
5:00 AM55 °FPassing clouds.No wind88%30.16 "HgN/A
4:00 AM64 °FClear.No wind83%30.16 "Hg10 mi
3:00 AM55 °FClear.No wind82%30.16 "Hg10 mi
2:00 AM55 °FClear.No wind88%30.17 "Hg10 mi
1:00 AM61 °FClear.No wind94%30.18 "Hg10 mi
12:00 AM59 °FClear.No wind82%30.20 "Hg10 mi
11:00 PM
Fri, Feb 12
59 °FClear.No wind82%30.21 "Hg10 mi
10:00 PM63 °FPassing clouds.No wind88%30.21 "HgN/A
9:00 PM63 °FPassing clouds.No wind68%30.21 "HgN/A
8:00 PM64 °FPassing clouds.3 mph64%30.20 "HgN/A
7:00 PM68 °FPassing clouds.3 mph78%30.19 "HgN/A
6:00 PM73 °FPassing clouds.6 mph38%30.20 "HgN/A
5:00 PM79 °FPassing clouds.8 mph32%30.20 "HgN/A
4:00 PM75 °FPassing clouds.7 mph61%30.19 "HgN/A
3:00 PM79 °FPassing clouds.8 mph32%30.20 "HgN/A
2:00 PM81 °FScattered clouds.5 mph28%30.19 "HgN/A
1:00 PM77 °FScattered clouds.8 mph54%30.24 "HgN/A
12:00 PM81 °FScattered clouds.9 mph28%30.27 "HgN/A
Weather by CustomWeather, © 2016

See weather overviewHow to use our weather pages